Погода в Здвинске

Погода в Здвинске : погода сейчас, прогноз погоды и архив. Всё, что Вы хотите узнать о погоде в Здвинске!

Хотите узнать прогноз погоды в Здвинске? Тогда Вам сюда: Погода в Здвинске

Поиск расширенной информации на нашем сайте:

Полезная информация: трубы 25 мм хром

Другие новости

Новости СМИ2

Главная страница сайта

Новости сайта

03.07.2017

Напоминаем, что на нашем специализированном сайте Метеоцентр.Азия вы можете получить высокодетализированные автоматические прогнозы погоды по пунктам России, СНГ и мира в авиационном формате (включающие направление и скорость ветра, видимость, явления погоды, количество и форму облачности, нижнюю и верхнюю границу облачности).

Рекомендуем: Стойка для печатной продукции

Погода в Здвинске - сегодня

Время (UTC), дата Ветер
(°,м/с) 
Видим.   Явления Облачность Т
(°С)
Тd
(°С)
f(%) Тe
(°С)
Pmin
(гПа)
dP
(гПа)
Po
(мм)
O2
(г/м3)
Тmin Tmax R s Состояние
почвы
03 22.11.17 210 (ЮЗ) 20000 м    10/8 1000 м средняя 
[Sc|Ac und]
-2.8 -5.9 79 -5  1033.7  0.7  764  312  -2.8         
06 22.11.17 200 (Ю) 20000 м    8/4 1000 м средняя 
[Sc|Ac As]
-2.4 -6.3 75 -4  1034.6  0.9  765  312           
09 22.11.17 180 (Ю) 20000 м    10/0 средняя, верхняя 
[Ac As|Cs]
-2 -6.6 71 -3  1034.4  -0.2  765  311           
12 22.11.17 180 (Ю) 20000 м    10/0 верхняя 
[Cs]
-3.6 -6.8 78 -5  1034.2  -0.2  765  313    -1.2       
15 22.11.17 180 (Ю) 20000 м    6/0 верхняя 
[Ci sp]
-5.1 -7.9 81 -6  1033.8  -0.5  764  315           
18 22.11.17 160 (Ю) 20000 м    3/0 верхняя 
[Ci sp]
-6.3 -9 81 -8  1033.2  -0.7  764  316           
21 22.11.17 170 (Ю) 20000 м    ясно 
-8.9 -10.8 86 -9  1032.7  -0.6  763  319           
00 23.11.17 160 (Ю) 20000 м    ясно 
-8.5 -10.1 88 -10  1031.8  -0.9  763  318  -9      равномерный
сухой снег
100% 
03 23.11.17 150 (ЮВ) 20000 м    3/0 верхняя 
[Ci sp]
-10.9 -12.1 91 -11  1032.6  0.6  763  321  -10.9         
06 23.11.17 200 (Ю) 20000 м    ясно 
-4.5 -7.9 77 -6  1032.2  763  313           
09 23.11.17 200 (Ю) 20000 м    ясно 
-2.6 -7.7 68 -2  1031.4  -0.7  763  311           
12 23.11.17 180 (Ю) 20000 м    ясно 
-5.6 -8.9 78 -5  1031.6  763  315    -2.1       
15 23.11.17 180 (Ю) 20000 м    ясно 
-6.9 -9.1 84 -8  1031.5  -0.1  763  316           
18 23.11.17 190 (Ю) 20000 м    ясно 
-7.7 -10 84 -9  1031.5  -0.1  762  317           
21 23.11.17 200 (Ю) 20000 м    ясно 
-8.1 -10.4 83 -8  1031.3  -0.2  762  318           
00 24.11.17 170 (Ю) 20000 м    ясно 
-12.3 -13.6 90 -12  1031.5  762  323  -12.3      равномерный
сухой снег
100% 
03 24.11.17 180 (Ю) 20000 м    ясно 
-11.2 -12.5 90 -13  1031.2  -0.3  762  321  -13.3         
06 24.11.17 190 (Ю) 20000 м    ясно 
-2.3 -8.4 63 -3  1030.2  -0.4  762  310           
09 24.11.17 140 (ЮВ) 20000 м    ясно 
+0 -8.8 51 +1  1028.9  -1.2  761  307           
12 24.11.17 130 (ЮВ) 20000 м    ясно 
-3.9 -9.3 66 -5  1027.9  -1.2  760  312    +0.7       
15 24.11.17 150 (ЮВ) 20000 м    ясно 
-4.1 -10.5 61 -5  1026.5  -1.4  759  311           
18 24.11.17 160 (Ю) 20000 м    ясно 
-6.3 -9.8 76 -8  1024.9  -1.7  758  313           
21 24.11.17 180 (Ю) 20000 м    ясно 
-7.4 -9.5 85 -9  1023.1  -1.9  756  314           
00 25.11.17 170 (Ю) 20000 м    ясно 
-8.4 -10 88 -10  1020.7  -2.3  755  315  -8.8      равномерный
сухой снег
100% 
03 25.11.17 190 (Ю) 20000 м    ясно 
-8.7 -10.7 85 -10  1018.9  -1.8  753  315  -9.1         
Время (UTC), дата Ветер
(°,м/с) 
Видим.   Явления Облачность Т
(°С)
Тd
(°С)
f(%) Тe
(°С)
Pmin
(гПа)
dP
(гПа)
Po
(мм)
O2
(г/м3)
Тmin Tmax R s Состояние
почвы

Для получения пояснительной информации подведите курсор к названию столбца.

ПОГОДА в Здвинске - архив

Всё, что Вы хотите узнать о погоде в Здвинске - удобно и подробно!

Выберите нужную дату (начиная с 1 января 2015* года) и нажмите кнопку "Найти".
Будут отображены архивные сводки погоды по пункту Здвинск, начиная с указанной даты.


Отображать данные в формате CSV (для использования в таблицах Excel)


Внимание! Наш архив погоды предназначен исключительно для личного некоммерческого использования в познавательных целях. Если Вам необходимы официальные справки о состоянии погоды (для производственных, юридических, коммерческих и т.п. целей), обращайтесь в органы Росгидромета.

*Примечание: данная дата относится к архиву по метеостанциям СССР (Россия, СНГ, Балтия).
Архив по метеостанциям Зарубежной Европы и Азии (кроме Китая) хранится 10 дней, по другим регионам земного шара (Китай, Африка, Америка, Австралия, Океания) - 1 день.

Здвинск - район местоположения метеостанции


Название, широта, долгота, высота метеостанции:
Здвинск 54.7°ш. 78.7°д. 113 м над ур. моря [Российская Федерация]

Дополнительная информация

В oтличие oт бoльшинства пoгoдных сайтoв мы публикуем пoдрoбную метеoинфoрмацию в детальнoм прoфессиoнальнoм фoрмате.

Характеристики температуры и влажнoсти вoздуха измеряются на высoте 2 м в тени вдали oт зданий и деревьев.
Скoрoсть ветра измеряется на высoте 10 м (на урoвне рoста челoвека скoрoсть ветра ниже в 1.5-2 раза). Если метеoстанция нахoдится в гoрoде или в лесу, тo скoрoсть ветра занижена на 2-4 м/с пo сравнению с oткрытым местoм. Скoрoсть ветра над акватoриями крупных рек и oзёр, а также на вершинах хoлмoв на 2-5 м/с выше, чем в oбычных услoвиях.
Атмoсфернoе давление в разных тoчках местнoсти мoжет значительнo oтличаться oт давления на метеoстанции, в зависимoсти oт услoвий рельефа (при пoдъёме на 10 м давление пoнижается примернo на 1 мм рт.ст.).